Vertical_Velocity
-1 -2 -0 -1 0 1 1 1 1 1 -3 1 -2 -2 0 -1 -1 -1 -1 -2 -1 -0 1 -1 0 -0 0 -0 -0 -1 0 -0 -1 -1 -2 -1 1 0 -0 -1 -1 -2 -1 -1
-0 0 -1 -1 -0 -0 1 1 -0 -1 1 1 0 -2 -0 -2 -2 -2 -0 -1 -1 -2 -0 0 -0 0 -0 0 -0 -0 -0 1 1 -0 0 -0 1 -0 -1 0 -2 -0 0 0
-1 -2 -2 0 0 0 1 1 0 0 -1 3 1 -1 -1 -4 -0 -2 -2 -0 -1 -0 -1 0 0 -0 0 1 -1 -1 -1 -1 -1 1 1 1 1 2 0 0 0 -0 -0 0
-1 -1 0 1 0 -0 1 1 -0 -0 1 1 1 1 -3 2 -7 -1 -2 -3 -1 -1 2 0 -1 -0 -0 -0 1 -2 -1 -0 -1 -3 -0 1 -0 0 0 -0 0 1 0 -0
0 0 -0 0 2 -1 3 -2 1 1 2 -0 0 -1 -0 -6 1 -1 -6 -1 -2 -1 -2 -1 -0 -2 -1 -1 0 0 -1 -1 1 1 -0 -1 -1 -0 1 1 -0 -1 -1 0
-2 -3 1 -1 -2 0 -1 1 -1 0 -1 -2 1 0 -2 17 -0 -0 -1 0 -4 -1 -2 -1 0 -1 -1 -2 -2 -1 -1 -1 -1 1 -1 0 1 1 0 1 1 1 -0 -1
-3 -1 -0 1 2 1 1 1 -0 -2 -2 -3 3 3 7 0 3 -2 -1 -1 1 -4 -1 -1 0 -0 -1 -1 -2 1 -1 -2 -1 -0 0 -0 -0 1 0 -1 -0 -0 -0 0
-2 -4 -3 1 3 -0 1 1 2 5 5 26 7 -2 7 1 -1 -1 -3 1 -0 -0 -4 0 0 -1 0 -1 1 -2 -1 -1 -1 -1 1 0 -0 -1 -1 -1 -1 -2 -1 1
4 1 -7 -3 -1 -0 2 -2 5 -2 -4 -5 2 4 -4 1 2 1 -1 -0 -1 -3 1 -3 1 -0 -1 -1 -1 -2 0 -1 -1 -1 -1 -2 -1 -1 -1 -1 -0 -1 -0 -2
1 -0 -4 -3 -1 -0 -1 1 1 -1 -1 -4 7 4 2 4 -3 -0 1 1 0 -5 -2 0 1 -1 -0 -1 -2 -0 -0 -1 -1 -1 -1 -1 -2 -1 -0 -0 -2 -1 -1 1
1 0 6 -4 1 -0 -2 1 -2 -1 3 10 5 17 0 -5 -7 -3 3 1 2 -7 -1 -2 1 1 1 -0 -1 -1 -1 -0 -1 -3 -1 -1 -1 -0 -1 -2 -0 -0 0 -1
3 1 -0 -1 -0 -2 -2 1 1 1 -2 -5 -10 -14 1 9 -3 -4 -3 1 -3 -0 -1 -1 -1 -2 -1 -2 -3 -1 -1 -1 -1 -1 -0 -1 -0 -0 -2 -2 -0 1 1 2
4 -1 2 -0 1 -7 -7 -1 -2 5 7 4 2 14 25 13 4 -1 2 -1 -6 -2 1 -1 -0 -1 -1 -2 -3 -3 -3 -1 -2 -2 -1 2 -1 -0 2 1 0 -0 -1 -1
4 5 -1 3 14 4 -1 8 -5 1 3 5 2 -2 -7 -2 -2 1 3 -8 -2 -1 -1 -2 0 -2 -1 -0 -0 -1 -1 -0 -1 -1 -1 -1 0 -1 2 1 1 -0 -1 1
3 -1 1 1 -8 2 1 1 -2 -2 1 -3 -2 5 7 17 18 3 13 -8 0 -4 1 -3 -2 -2 -0 -0 -0 1 -1 0 -1 -0 0 -1 -1 0 0 2 1 2 1 -1
2 -1 -2 1 -1 -6 -0 3 -2 -0 -0 -5 -1 -3 -4 -6 4 4 1 -2 -4 -5 -0 -1 -3 -1 -1 -1 0 0 2 1 -2 -0 2 0 -1 -1 -1 -1 0 1 1 -1
-2 4 -1 -3 -3 -0 -10 0 1 3 1 4 -2 4 5 3 1 4 -0 -7 -1 1 -1 0 -1 -3 -3 -1 -1 -1 -3 -1 -0 -1 -1 -2 0 -2 -0 -0 2 2 2 -2
2 1 -1 -0 -1 -18 15 3 -2 -5 3 1 -2 3 2 3 9 -6 -15 6 0 1 -3 0 0 -0 -4 -4 -2 -1 -1 -2 -3 -2 -2 -1 2 -0 0 1 2 0 4 2
4 2 -3 -12 -6 9 4 1 -8 -10 6 -1 7 5 -0 -8 -18 16 -0 3 0 -1 0 1 -1 -0 -1 0 -2 -0 -1 0 -2 -3 -3 -4 -3 0 -1 -0 -1 -0 -0 -2
3 0 -9 16 -13 -10 20 20 9 -1 -6 -5 1 0 2 -5 5 -18 4 2 1 -1 0 1 -0 -0 1 2 0 1 2 2 -0 -2 -3 -1 -2 -3 -1 9 -0 2 -3 -1
-1 -1 -10 4 -10 -6 12 1 11 -5 14 -7 2 -1 -0 11 -0 -3 -7 1 -0 3 2 1 2 0 -0 0 0 -1 0 1 -1 -1 -1 -0 -4 -2 -3 1 -2 -1 -6 13
-1 4 1 1 -4 -17 4 -0 -7 6 -8 -4 1 -1 1 4 1 -5 -1 0 4 -1 2 2 2 4 1 1 -1 0 -0 -2 -0 -2 -2 -2 1 -8 -2 -1 0 0 9 3
-7 -3 -6 10 7 -11 4 4 -11 2 2 5 -6 0 1 2 1 1 -0 2 -2 4 1 0 2 4 -0 -0 -2 -0 -2 -2 1 -1 0 -0 2 -0 -4 -0 2 0 2 2
4 -8 -8 -7 26 -1 2 -10 -4 2 2 -7 3 -3 4 -0 4 -0 -0 1 1 2 2 -3 4 1 -0 0 -2 -1 -1 -0 -2 -1 0 -1 0 -0 -6 1 1 6 -4 15
7 -5 4 -8 0 1 3 12 15 -14 -0 3 5 -0 -3 -1 1 0 -1 2 0 0 0 -0 -4 2 -0 -0 -1 0 -1 0 -2 1 1 -0 -4 -6 -6 2 6 11 5 12
-1 -1 -9 -4 3 -5 -1 -3 5 3 -2 9 0 -0 -1 -2 -0 3 2 -1 -0 -2 -4 0 -2 -0 -2 1 0 -0 -0 0 -1 2 -3 -2 1 -2 -5 4 25 20 11 -1
Height
5903 5904 5905 5906 5907 5907 5907 5907 5906 5905 5903 5903 5902 5901 5899 5898 5897 5897 5897 5897 5897 5897 5895 5895 5895 5895 5895 5896 5897 5898 5900 5901 5903 5905 5907 5908 5909 5911 5914 5916 5918 5921 5922 5924
5901 5901 5902 5903 5904 5905 5905 5904 5904 5904 5903 5902 5901 5901 5900 5897 5896 5896 5895 5895 5895 5896 5896 5895 5894 5895 5896 5895 5896 5896 5899 5900 5901 5903 5905 5907 5909 5912 5914 5916 5918 5920 5922 5924
5896 5898 5898 5900 5902 5902 5902 5901 5902 5902 5901 5901 5900 5900 5900 5896 5895 5894 5893 5893 5893 5894 5895 5895 5894 5893 5894 5895 5895 5895 5896 5898 5901 5903 5904 5906 5908 5910 5912 5913 5915 5919 5921 5923
5893 5894 5895 5897 5899 5899 5899 5898 5898 5899 5900 5899 5899 5901 5900 5900 5894 5893 5892 5891 5891 5892 5894 5894 5893 5893 5893 5894 5895 5895 5896 5897 5899 5901 5903 5904 5906 5908 5909 5911 5913 5916 5919 5922
5891 5891 5892 5894 5895 5895 5897 5896 5896 5897 5897 5896 5896 5898 5902 5899 5897 5893 5890 5890 5889 5888 5890 5891 5892 5891 5891 5892 5893 5894 5895 5896 5897 5899 5901 5902 5904 5906 5908 5910 5912 5914 5917 5920
5888 5888 5889 5890 5890 5891 5892 5893 5893 5894 5894 5894 5895 5898 5902 5902 5896 5894 5893 5892 5887 5887 5887 5889 5890 5890 5889 5890 5891 5892 5893 5894 5896 5897 5899 5900 5902 5903 5905 5908 5910 5912 5914 5917
5883 5885 5885 5886 5886 5888 5888 5889 5890 5892 5893 5894 5898 5898 5900 5896 5893 5890 5890 5890 5889 5885 5885 5886 5888 5889 5888 5888 5889 5891 5891 5893 5894 5896 5898 5899 5900 5902 5904 5906 5909 5910 5911 5914
5879 5881 5880 5881 5882 5883 5884 5885 5889 5894 5897 5900 5895 5894 5895 5889 5887 5886 5886 5888 5887 5885 5883 5884 5885 5886 5887 5886 5887 5888 5889 5890 5893 5895 5896 5897 5899 5900 5903 5905 5907 5909 5911 5914
5879 5877 5874 5876 5876 5878 5879 5880 5883 5884 5889 5892 5894 5893 5891 5888 5884 5883 5882 5883 5883 5882 5882 5881 5884 5883 5884 5884 5884 5885 5886 5888 5890 5892 5894 5896 5897 5899 5901 5903 5906 5907 5909 5912
5871 5872 5870 5871 5872 5873 5874 5877 5879 5879 5882 5884 5889 5889 5889 5884 5880 5880 5880 5879 5878 5876 5880 5880 5881 5881 5881 5882 5882 5883 5884 5886 5887 5890 5892 5893 5895 5896 5898 5900 5903 5905 5907 5908
5865 5866 5870 5866 5868 5869 5870 5871 5872 5874 5880 5883 5885 5888 5881 5878 5875 5877 5878 5876 5874 5872 5876 5877 5878 5878 5879 5880 5881 5881 5882 5883 5885 5887 5889 5891 5892 5894 5896 5898 5899 5901 5903 5905
5859 5860 5861 5863 5864 5864 5865 5869 5869 5869 5871 5873 5876 5879 5878 5875 5872 5871 5871 5871 5868 5869 5872 5874 5875 5875 5875 5876 5877 5879 5880 5881 5883 5884 5886 5888 5890 5891 5892 5894 5896 5898 5899 5901
5851 5851 5854 5858 5863 5862 5859 5860 5862 5867 5870 5871 5872 5877 5875 5872 5869 5869 5869 5866 5863 5865 5867 5869 5871 5871 5872 5872 5873 5876 5878 5879 5880 5881 5883 5886 5887 5888 5889 5890 5892 5893 5895 5896
5841 5844 5847 5853 5859 5856 5852 5852 5854 5858 5861 5864 5866 5869 5870 5868 5867 5866 5865 5859 5858 5860 5863 5865 5866 5868 5869 5870 5871 5873 5875 5876 5878 5879 5881 5882 5884 5885 5885 5886 5887 5889 5889 5891
5833 5833 5836 5838 5843 5844 5844 5845 5846 5847 5850 5851 5857 5859 5862 5863 5861 5861 5859 5855 5854 5854 5857 5859 5862 5864 5865 5867 5868 5870 5872 5873 5874 5876 5877 5878 5879 5880 5881 5882 5882 5883 5885 5885
5822 5822 5825 5825 5829 5831 5832 5833 5835 5837 5838 5839 5842 5844 5849 5851 5851 5851 5850 5851 5847 5848 5851 5853 5856 5858 5860 5862 5865 5867 5869 5870 5870 5872 5873 5875 5876 5876 5876 5877 5877 5877 5878 5879
5810 5812 5812 5811 5816 5819 5816 5823 5823 5824 5828 5830 5830 5837 5841 5842 5844 5844 5842 5838 5841 5844 5846 5848 5851 5853 5856 5858 5859 5861 5862 5864 5866 5868 5868 5869 5870 5870 5870 5870 5870 5871 5872 5872
5797 5799 5799 5799 5804 5799 5809 5814 5814 5813 5815 5817 5818 5824 5829 5833 5832 5828 5828 5836 5837 5839 5841 5843 5845 5848 5850 5852 5854 5856 5857 5858 5860 5861 5862 5863 5864 5865 5865 5865 5865 5865 5865 5866
5784 5785 5785 5785 5788 5791 5797 5800 5801 5801 5802 5803 5805 5807 5809 5814 5813 5823 5823 5829 5830 5833 5835 5838 5840 5843 5845 5848 5850 5852 5852 5853 5854 5855 5855 5856 5857 5858 5858 5859 5860 5860 5860 5860
5768 5770 5770 5774 5772 5774 5787 5789 5784 5782 5784 5790 5792 5791 5796 5798 5807 5812 5811 5818 5822 5825 5828 5832 5834 5836 5839 5842 5844 5846 5847 5848 5849 5850 5850 5850 5850 5850 5852 5853 5852 5851 5853 5854
5754 5755 5756 5759 5759 5761 5768 5772 5772 5769 5778 5776 5776 5777 5781 5790 5793 5798 5801 5808 5813 5818 5821 5824 5828 5830 5833 5835 5837 5839 5841 5842 5843 5844 5844 5844 5843 5844 5843 5846 5844 5846 5844 5846
5744 5745 5744 5748 5748 5749 5757 5756 5756 5757 5754 5759 5763 5767 5769 5775 5781 5786 5791 5798 5803 5809 5813 5816 5819 5823 5825 5828 5830 5832 5833 5835 5837 5837 5837 5837 5836 5836 5835 5835 5836 5835 5834 5837
5730 5731 5733 5738 5737 5734 5736 5740 5740 5741 5742 5746 5749 5753 5757 5761 5766 5773 5780 5786 5792 5799 5804 5807 5810 5814 5816 5820 5823 5824 5825 5828 5829 5830 5830 5829 5827 5826 5825 5825 5826 5825 5826 5830
5717 5715 5718 5718 5726 5726 5727 5728 5726 5729 5729 5731 5736 5740 5744 5749 5754 5760 5767 5773 5780 5788 5793 5796 5802 5805 5809 5813 5815 5817 5819 5821 5822 5823 5822 5820 5818 5817 5816 5812 5812 5813 5813 5816
5707 5706 5707 5707 5709 5713 5714 5715 5712 5712 5714 5718 5724 5727 5730 5736 5741 5747 5754 5761 5768 5775 5781 5785 5791 5795 5799 5803 5806 5809 5812 5814 5816 5815 5815 5813 5809 5805 5800 5798 5799 5801 5804 5807
5696 5694 5693 5695 5696 5696 5698 5697 5699 5702 5703 5709 5711 5714 5718 5722 5728 5735 5742 5748 5755 5762 5768 5774 5780 5786 5790 5794 5798 5801 5804 5807 5809 5809 5808 5806 5804 5798 5793 5791 5788 5791 5794 5800